1512619200.29,49860,4.06,73572.0,-8.39,-9.19,-9.23,0,*58
1512619201.52,49861,4.06,73600.0,-8.39,-9.19,-9.23,0,*59
1512619202.74,49862,4.06,73584.3,-8.39,-9.23,-9.19,0,*5A
1512619203.96,49863,4.06,73594.0,-8.39,-9.23,-9.23,0,*52
1512619205.18,49864,4.06,73588.3,-8.39,-9.23,-9.23,0,*55
1512619206.4,49865,4.06,73586.8,-8.39,-9.23,-9.23,0,*54
1512619207.62,49866,4.06,73588.5,-8.39,-9.23,-9.23,0,*57
1512619208.84,49867,4.06,73594.8,-8.39,-9.23,-9.23,0,*56
1512619210.03,49868,4.06,73590.8,-8.41,-9.23,-9.23,0,*56
1512619211.23,49869,4.06,73580.8,-8.41,-9.23,-9.23,0,*57
1512619212.43,49870,4.06,73588.3,-8.41,-9.23,-9.19,0,*56
1512619213.65,49871,4.06,73588.8,-8.39,-9.23,-9.23,0,*51
1512619214.84,49872,4.06,73600.0,-8.41,-9.23,-9.23,0,*5D
1512619216.04,49873,4.06,73592.3,-8.41,-9.23,-9.23,0,*5C
1512619217.26,49874,4.06,73590.5,-8.39,-9.27,-9.23,0,*50
1512619218.48,49875,4.06,73588.5,-8.39,-9.23,-9.23,0,*55
1512619219.7,49876,4.06,73590.3,-8.39,-9.23,-9.23,0,*56
1512619220.92,49877,4.06,73588.8,-8.39,-9.19,-9.23,0,*5E
1512619222.14,49878,4.06,73588.8,-8.39,-9.23,-9.23,0,*58
1512619223.34,49879,4.06,73586.5,-8.41,-9.23,-9.23,0,*56
1512619224.53,49880,4.06,73580.5,-8.41,-9.23,-9.23,0,*50
1512619225.75,49881,4.06,73584.5,-8.39,-9.23,-9.23,0,*5E
1512619226.95,49882,4.06,73586.0,-8.41,-9.27,-9.23,0,*56
1512619228.17,49883,4.06,73576.0,-8.39,-9.19,-9.23,0,*55
1512619229.39,49884,4.06,73592.0,-8.39,-9.23,-9.23,0,*5B
1512619230.61,49885,4.06,73594.5,-8.39,-9.23,-9.23,0,*5A
1512619231.83,49886,4.06,73596.0,-8.39,-9.23,-9.23,0,*59
1512619233.05,49887,4.06,73588.5,-8.39,-9.23,-9.23,0,*58
1512619234.25,49888,4.06,73594.5,-8.41,-9.23,-9.23,0,*58
1512619235.47,49889,4.06,73588.5,-8.39,-9.23,-9.23,0,*56
1512619236.67,49890,4.06,73598.3,-8.41,-9.23,-9.27,0,*55
1512619237.89,49891,4.06,73596.3,-8.39,-9.27,-9.27,0,*5F
1512619239.09,49892,4.06,73598.3,-8.41,-9.27,-9.27,0,*53
1512619240.29,49893,4.06,73596.5,-8.41,-9.27,-9.27,0,*52
1512619241.51,49894,4.06,73600.3,-8.39,-9.27,-9.27,0,*5A
1512619242.73,49895,4.06,73592.5,-8.39,-9.27,-9.23,0,*5F
1512619243.95,49896,4.06,73590.5,-8.39,-9.27,-9.23,0,*5C
1512619245.17,49897,4.06,73590.8,-8.39,-9.27,-9.23,0,*5D
1512619246.39,49898,4.06,73588.3,-8.39,-9.27,-9.23,0,*52
1512619247.62,49899,4.06,73594.5,-8.41,-9.37,-9.23,0,*5D
1512619248.82,49900,4.06,73602.8,-8.41,-9.27,-9.27,0,*59
1512619250.04,49901,4.06,73602.0,-8.39,-9.27,-9.27,0,*57
1512619251.26,49902,4.06,73594.5,-8.39,-9.27,-9.27,0,*54
1512619252.46,49903,4.06,73590.3,-8.41,-9.27,-9.27,0,*5A
1512619253.71,49904,4.06,73592.0,-8.39,-9.37,-9.27,0,*53
1512619254.91,49905,4.06,73594.0,-8.41,-9.27,-9.27,0,*5C
1512619256.11,49906,4.06,73590.3,-8.41,-9.27,-9.27,0,*5F
1512619257.34,49907,4.06,73588.8,-8.41,-9.37,-9.27,0,*5F
1512619258.56,49908,4.06,73590.3,-8.39,-9.27,-9.27,0,*5E
1512619259.79,49909,4.06,73592.8,-8.41,-9.37,-9.27,0,*51
1512619260.99,49910,4.06,73594.8,-8.41,-9.27,-9.27,0,*58
1512619262.24,49911,4.06,73596.3,-8.39,-9.27,-9.37,0,*57
1512619263.46,49912,4.06,73598.3,-8.41,-9.37,-9.27,0,*5B
1512619264.72,49913,4.06,73596.8,-8.41,-9.37,-9.37,0,*5B
1512619265.92,49914,4.06,73602.0,-8.41,-9.27,-9.27,0,*5C
1512619267.14,49915,4.06,73598.0,-8.39,-9.27,-9.27,0,*52
1512619268.34,49916,4.06,73602.8,-8.41,-9.27,-9.27,0,*5E
1512619269.56,49917,4.06,73598.0,-8.41,-9.37,-9.27,0,*5E
1512619270.79,49918,4.06,73602.8,-8.41,-9.37,-9.27,0,*51
1512619271.99,49919,4.06,73594.5,-8.41,-9.27,-9.27,0,*51
1512619273.19,49920,4.06,73596.8,-8.41,-9.27,-9.27,0,*5B
1512619274.39,49921,4.06,73598.3,-8.41,-9.27,-9.27,0,*5A
1512619275.59,49922,4.06,73596.0,-8.45,-9.31,-9.31,0,*5D
1512619276.82,49923,4.06,73594.3,-8.45,-9.31,-9.41,0,*5B
1512619278.03,49924,4.06,73598.0,-8.43,-9.31,-9.31,0,*5D
1512619279.25,49925,4.06,73596.8,-8.43,-9.31,-9.31,0,*5C
1512619280.47,49926,4.06,73594.8,-8.43,-9.31,-9.31,0,*5F
1512619281.71,49927,4.06,73598.5,-8.43,-9.31,-9.41,0,*59
1512619282.93,49928,4.06,73596.0,-8.43,-9.31,-9.31,0,*51
1512619284.13,49929,4.06,73596.5,-8.45,-9.31,-9.31,0,*56
1512619285.33,49930,4.06,73596.0,-8.45,-9.31,-9.31,0,*5E
1512619286.54,49931,4.06,73594.0,-8.43,-9.31,-9.31,0,*59
1512619287.79,49932,4.06,73594.3,-8.43,-9.31,-9.41,0,*5D
1512619289.01,49933,4.06,73594.5,-8.43,-9.31,-9.31,0,*5B
1512619290.22,49934,4.06,73590.0,-8.43,-9.31,-9.31,0,*5C
1512619291.42,49935,4.06,73590.0,-8.41,-9.27,-9.27,0,*5F
1512619292.64,49936,4.06,73596.0,-8.43,-9.31,-9.31,0,*5E
1512619293.85,49937,4.06,73600.0,-8.43,-9.31,-9.31,0,*5F
1512619295.07,49938,4.06,73598.3,-8.43,-9.31,-9.31,0,*50
1512619296.28,49939,4.06,73600.0,-8.43,-9.31,-9.31,0,*51
1512619297.5,49940,4.06,73600.5,-8.43,-9.31,-9.31,0,*5F
1512619298.72,49941,4.06,73602.0,-8.43,-9.31,-9.31,0,*5E
1512619299.93,49942,4.06,73604.8,-8.43,-9.31,-9.31,0,*5D
1512619301.15,49943,4.06,73610.8,-8.43,-9.31,-9.31,0,*5C
1512619302.35,49944,4.06,73616.5,-8.45,-9.31,-9.31,0,*5D
1512619303.55,49945,4.06,73604.3,-8.45,-9.31,-9.31,0,*5C
1512619304.76,49946,4.06,73588.8,-8.43,-9.31,-9.31,0,*59
1512619306.01,49947,4.06,73582.3,-8.43,-9.41,-9.31,0,*5F
1512619307.22,49948,4.06,73580.8,-8.43,-9.27,-9.31,0,*50
1512619308.42,49949,4.06,73582.8,-8.45,-9.31,-9.31,0,*50
1512619309.62,49950,4.06,73580.8,-8.45,-9.31,-9.31,0,*58
1512619310.84,49951,4.06,73566.8,-8.43,-9.31,-9.31,0,*5F
1512619312.07,49952,4.06,73578.8,-8.45,-9.31,-9.41,0,*5D
1512619313.29,49953,4.06,73584.3,-8.45,-9.41,-9.31,0,*5C
1512619314.49,49954,4.06,73580.3,-8.45,-9.31,-9.31,0,*5C
1512619315.71,49955,4.06,73582.3,-8.43,-9.31,-9.31,0,*5B
1512619316.91,49956,4.06,73586.0,-8.45,-9.31,-9.31,0,*5E
1512619318.11,49957,4.06,73584.3,-8.45,-9.31,-9.31,0,*5F
1512619319.33,49958,4.06,73584.3,-8.45,-9.41,-9.31,0,*57
1512619320.56,49959,4.06,73588.8,-8.45,-9.41,-9.31,0,*56
1512619321.78,49960,4.06,73602.5,-8.43,-9.31,-9.31,0,*5D
1512619323.02,49961,4.06,73584.8,-8.43,-9.41,-9.31,0,*5B
1512619324.24,49962,4.06,73592.5,-8.43,-9.31,-9.31,0,*5F
1512619325.48,49963,4.06,73588.5,-8.43,-9.31,-9.41,0,*59
1512619326.71,49964,4.06,73586.0,-8.45,-9.41,-9.31,0,*58
1512619327.93,49965,4.06,73588.5,-8.45,-9.41,-9.31,0,*59
1512619329.17,49966,4.06,73584.8,-8.45,-9.31,-9.41,0,*5A
1512619330.36,49967,4.06,73584.8,-8.45,-9.31,-9.31,0,*5C
1512619331.61,49968,4.06,73586.5,-8.43,-9.41,-9.31,0,*52
1512619332.81,49969,4.06,73586.8,-8.45,-9.31,-9.31,0,*52
1512619334.05,49970,4.06,73592.8,-8.43,-9.41,-9.31,0,*5B
1512619335.25,49971,4.06,73594.0,-8.45,-9.31,-9.31,0,*5B
1512619336.45,49972,4.06,73596.5,-8.45,-9.31,-9.31,0,*58
1512619337.65,49973,4.06,73584.5,-8.45,-9.31,-9.31,0,*59
1512619338.85,49974,4.06,73578.8,-8.45,-9.31,-9.31,0,*5E
1512619340.1,49975,4.06,73576.3,-8.43,-9.31,-9.41,0,*5E
1512619341.35,49976,4.06,73574.0,-8.45,-9.41,-9.41,0,*5C
1512619342.55,49977,4.06,73546.5,-8.45,-9.31,-9.31,0,*5D
1512619343.81,49978,4.06,73552.0,-8.47,-9.31,-9.37,0,*56
1512619345.0,49979,4.06,73546.0,-8.45,-9.31,-9.31,0,*53
1512619346.28,49980,4.06,73556.8,-8.47,-9.45,-9.37,0,*52
1512619347.56,49981,4.06,73572.8,-8.47,-9.37,-9.37,0,*56
1512619348.79,49982,4.06,73556.8,-8.45,-9.41,-9.31,0,*50
1512619349.99,49983,4.06,73556.8,-8.45,-9.31,-9.31,0,*56
1512619351.22,49984,4.06,73558.3,-8.45,-9.41,-9.31,0,*56
1512619352.41,49985,4.06,73564.3,-8.45,-9.31,-9.31,0,*50
1512619353.64,49986,4.06,73570.3,-8.45,-9.41,-9.31,0,*54
1512619354.9,49987,4.06,73578.0,-8.45,-9.41,-9.41,0,*52
1512619356.1,49988,4.06,73582.0,-8.45,-9.31,-9.31,0,*5D
1512619357.32,49989,4.06,73582.3,-8.45,-9.41,-9.31,0,*5B
1512619358.61,49990,4.06,73578.3,-8.47,-9.37,-9.37,0,*56
1512619359.8,49991,4.06,73576.8,-8.45,-9.31,-9.31,0,*55
1512619361.04,49992,4.06,73566.0,-8.45,-9.31,-9.41,0,*51
1512619362.26,49993,4.06,73564.0,-8.45,-9.41,-9.31,0,*50
1512619363.49,49994,4.06,73578.3,-8.45,-9.41,-9.31,0,*57
1512619364.74,49995,4.06,73578.8,-8.49,-9.45,-9.45,0,*5D
1512619366.02,49996,4.06,73586.0,-8.47,-9.45,-9.37,0,*55
1512619367.3,49997,4.06,73586.0,-8.47,-9.37,-9.45,0,*54
1512619368.5,49998,4.06,73586.0,-8.45,-9.31,-9.31,0,*5C
1512619369.78,49999,4.06,73582.5,-8.47,-9.37,-9.37,0,*5F
1512619370.98,50000,4.06,73588.3,-8.45,-9.31,-9.31,0,*5C
1512619372.21,50001,4.06,73580.5,-8.45,-9.31,-9.41,0,*5A
1512619373.49,50002,4.06,73580.3,-8.47,-9.37,-9.37,0,*5C
1512619374.77,50003,4.06,73576.5,-8.47,-9.37,-9.37,0,*5D
1512619376.05,50004,4.06,73580.0,-8.47,-9.37,-9.37,0,*5A
1512619377.3,50005,4.06,73588.3,-8.49,-9.37,-9.37,0,*55
1512619378.59,50006,4.06,73590.3,-8.47,-9.37,-9.45,0,*5D
1512619379.87,50007,4.06,73592.8,-8.47,-9.37,-9.37,0,*59
1512619381.14,50008,4.06,73584.8,-8.47,-9.45,-9.37,0,*53
1512619382.42,50009,4.06,73586.8,-8.47,-9.37,-9.45,0,*52
1512619383.7,50010,4.06,73580.5,-8.47,-9.45,-9.37,0,*5A
1512619384.98,50011,4.06,73576.5,-8.47,-9.37,-9.37,0,*5E
1512619386.24,50012,4.06,73592.8,-8.49,-9.37,-9.37,0,*53
1512619387.51,50013,4.06,73602.8,-8.47,-9.45,-9.45,0,*5C
1512619388.79,50014,4.06,73596.3,-8.47,-9.45,-9.37,0,*5E
1512619390.07,50015,4.06,73594.3,-8.47,-9.45,-9.37,0,*5F
1512619391.35,50016,4.06,73590.3,-8.47,-9.45,-9.37,0,*5C
1512619392.63,50017,4.06,73586.8,-8.47,-9.45,-9.37,0,*5D
1512619393.88,50018,4.06,73584.0,-8.49,-9.45,-9.45,0,*59
1512619395.16,50019,4.06,73594.5,-8.47,-9.37,-9.45,0,*53
1512619396.43,50020,4.06,73592.3,-8.47,-9.45,-9.37,0,*59
1512619397.72,50021,4.06,73586.5,-8.47,-9.37,-9.37,0,*5D
1512619398.97,50022,4.06,73588.0,-8.49,-9.45,-9.45,0,*50
1512619400.25,50023,4.06,73586.0,-8.47,-9.37,-9.37,0,*5F
1512619401.5,50024,4.06,73588.8,-8.49,-9.45,-9.37,0,*53
1512619402.78,50025,4.06,73592.8,-8.47,-9.45,-9.37,0,*5C
1512619404.03,50026,4.06,73588.0,-8.49,-9.45,-9.45,0,*54
1512619405.28,50027,4.06,73590.5,-8.49,-9.45,-9.45,0,*55
1512619406.55,50028,4.06,73586.3,-8.47,-9.45,-9.45,0,*54
1512619407.8,50029,4.06,73584.3,-8.49,-9.49,-9.37,0,*52
1512619409.06,50030,4.06,73584.3,-8.49,-9.37,-9.45,0,*56
1512619410.31,50031,4.06,73584.8,-8.49,-9.45,-9.45,0,*52
1512619411.56,50032,4.06,73588.8,-8.49,-9.45,-9.45,0,*51
1512619412.81,50033,4.06,73590.8,-8.49,-9.45,-9.45,0,*50
1512619414.06,50034,4.06,73598.3,-8.49,-9.45,-9.45,0,*57
1512619415.31,50035,4.06,73590.0,-8.49,-9.45,-9.45,0,*56
1512619416.56,50036,4.06,73584.3,-8.49,-9.49,-9.45,0,*59
1512619417.81,50037,4.06,73582.8,-8.49,-9.49,-9.45,0,*58
1512619419.06,50038,4.06,73574.0,-8.49,-9.45,-9.37,0,*5E
1512619420.31,50039,4.06,73586.5,-8.49,-9.37,-9.45,0,*5F
1512619421.56,50040,4.06,73592.8,-8.49,-9.45,-9.45,0,*54
1512619422.81,50041,4.06,73592.0,-8.49,-9.45,-9.45,0,*55
1512619424.06,50042,4.06,73592.0,-8.49,-9.45,-9.45,0,*56
1512619425.31,50043,4.06,73596.5,-8.49,-9.45,-9.45,0,*57
1512619426.59,50044,4.06,73596.3,-8.51,-9.49,-9.49,0,*59
1512619427.86,50045,4.06,73598.5,-8.51,-9.53,-9.49,0,*53
1512619429.13,50046,4.06,73598.3,-8.51,-9.49,-9.49,0,*5B
1512619430.4,50047,4.06,73598.0,-8.51,-9.49,-9.49,0,*5A
1512619431.67,50048,4.06,73594.0,-8.51,-9.49,-9.49,0,*55
1512619432.95,50049,4.06,73588.5,-8.51,-9.41,-9.49,0,*5C
1512619434.2,50050,4.06,73602.0,-8.49,-9.45,-9.49,0,*59
1512619435.45,50051,4.06,73598.5,-8.49,-9.45,-9.45,0,*54
1512619436.72,50052,4.06,73586.8,-8.51,-9.49,-9.49,0,*5E
1512619438.0,50053,4.06,73584.8,-8.51,-9.49,-9.49,0,*5F
1512619439.27,50054,4.06,73584.3,-8.51,-9.49,-9.53,0,*53
1512619440.54,50055,4.06,73590.5,-8.51,-9.49,-9.49,0,*59
1512619441.81,50056,4.06,73586.5,-8.51,-9.53,-9.49,0,*51
1512619443.09,50057,4.06,73576.5,-8.51,-9.41,-9.49,0,*53
1512619444.37,50058,4.06,73576.8,-8.51,-9.49,-9.49,0,*54
1512619445.64,50059,4.06,73576.8,-8.51,-9.49,-9.49,0,*55
1512619446.92,50060,4.06,73578.3,-8.51,-9.49,-9.53,0,*54
1512619448.19,50061,4.06,73580.0,-8.51,-9.49,-9.53,0,*55
1512619449.46,50062,4.06,73580.5,-8.51,-9.49,-9.49,0,*5D
1512619450.73,50063,4.06,73584.8,-8.51,-9.53,-9.49,0,*57
1512619451.96,50064,4.06,73584.5,-8.55,-9.67,-9.53,0,*58
1512619453.19,50065,4.06,73582.3,-8.55,-9.57,-9.57,0,*5E
1512619454.43,50066,4.06,73574.5,-8.55,-9.45,-9.57,0,*5E
1512619455.68,50067,4.06,73586.5,-8.55,-9.53,-9.53,0,*5C
1512619456.93,50068,4.06,73590.0,-8.55,-9.45,-9.53,0,*54
1512619458.17,50069,4.06,73594.8,-8.55,-9.53,-9.53,0,*52
1512619459.45,50070,4.06,73594.8,-8.51,-9.41,-9.49,0,*56
1512619460.7,50071,4.06,73586.3,-8.55,-9.53,-9.49,0,*50
1512619461.94,50072,4.06,73584.8,-8.55,-9.57,-9.53,0,*5C
1512619463.18,50073,4.06,73588.3,-8.55,-9.57,-9.53,0,*5D
1512619464.4,50074,4.06,73592.8,-8.55,-9.67,-9.53,0,*59
1512619465.65,50075,4.06,73588.8,-8.55,-9.53,-9.53,0,*5F
1512619466.89,50076,4.06,73592.3,-8.55,-9.53,-9.53,0,*5C
1512619468.13,50077,4.06,73594.8,-8.55,-9.53,-9.57,0,*59
1512619469.36,50078,4.06,73594.5,-8.55,-9.57,-9.57,0,*52
1512619470.61,50079,4.06,73576.8,-8.55,-9.53,-9.53,0,*53
1512619471.86,50080,4.06,73582.3,-8.55,-9.53,-9.53,0,*55
1512619473.08,50081,4.06,73584.5,-8.55,-9.67,-9.53,0,*53
1512619474.32,50082,4.06,73586.0,-8.55,-9.53,-9.53,0,*57
1512619475.56,50083,4.06,73588.5,-8.55,-9.57,-9.57,0,*56
1512619476.8,50084,4.06,73598.3,-8.55,-9.53,-9.57,0,*55
1512619478.01,50085,4.06,73598.0,-8.55,-9.57,-9.67,0,*53
1512619479.25,50086,4.06,73592.3,-8.55,-9.57,-9.53,0,*57
1512619480.49,50087,4.06,73596.0,-8.55,-9.57,-9.57,0,*52
1512619481.73,50088,4.06,73596.0,-8.55,-9.57,-9.53,0,*59
1512619482.94,50089,4.06,73588.0,-8.55,-9.67,-9.57,0,*5F
1512619484.18,50090,4.06,73594.5,-8.59,-9.57,-9.57,0,*58
1512619485.39,50091,4.06,73596.3,-8.59,-9.67,-9.57,0,*5A
1512619486.62,50092,4.06,73592.0,-8.59,-9.57,-9.57,0,*5A
1512619487.85,50093,4.06,73588.5,-8.59,-9.57,-9.57,0,*5B
1512619489.08,50094,4.06,73576.5,-8.59,-9.57,-9.57,0,*5C
1512619490.31,50095,4.06,73590.8,-8.59,-9.57,-9.57,0,*5D
1512619491.54,50096,4.06,73592.8,-8.59,-9.57,-9.57,0,*5E
1512619492.78,50097,4.06,73582.3,-8.59,-9.57,-9.53,0,*5B
1512619494.01,50098,4.06,73574.5,-8.59,-9.57,-9.57,0,*50
1512619495.21,50099,4.06,73564.8,-8.59,-9.67,-9.67,0,*51
1512619496.48,50100,4.06,73558.3,-8.61,-9.61,-9.61,0,*5B
1512619497.71,50101,4.06,73570.5,-8.59,-9.57,-9.57,0,*51
1512619498.94,50102,4.06,73586.0,-8.59,-9.57,-9.57,0,*52
1512619500.16,50103,4.06,73570.3,-8.59,-9.53,-9.67,0,*54
1512619501.39,50104,4.06,73578.3,-8.59,-9.57,-9.57,0,*54
1512619502.66,50105,4.06,73582.0,-8.61,-9.61,-9.61,0,*5E
1512619503.87,50106,4.06,73588.3,-8.59,-9.67,-9.57,0,*55
1512619505.08,50107,4.06,73596.3,-8.59,-9.67,-9.57,0,*54
1512619506.32,50108,4.06,73594.8,-8.59,-9.57,-9.53,0,*5C
1512619507.56,50109,4.06,73584.5,-8.59,-9.57,-9.53,0,*5D
1512619508.8,50110,4.06,73586.0,-8.59,-9.53,-9.53,0,*51
1512619510.07,50111,4.06,73590.8,-8.61,-9.57,-9.49,0,*54
1512619511.34,50112,4.06,73596.5,-8.61,-9.57,-9.49,0,*57
1512619512.6,50113,4.06,73592.8,-8.61,-9.57,-9.57,0,*59
1512619513.87,50114,4.06,73512.3,-8.61,-9.57,-9.49,0,*51
1512619515.14,50115,4.06,73542.0,-8.61,-9.57,-9.49,0,*50
1512619516.41,50116,4.06,73562.8,-8.61,-9.57,-9.49,0,*53
1512619517.68,50117,4.06,73556.5,-8.61,-9.57,-9.49,0,*52
1512619518.92,50118,4.06,73562.0,-8.59,-9.45,-9.45,0,*59
1512619520.17,50119,4.06,73560.8,-8.59,-9.49,-9.45,0,*54
1512619521.41,50120,4.06,73584.0,-8.59,-9.45,-9.45,0,*52
1512619522.68,50121,4.06,73590.5,-8.61,-9.49,-9.57,0,*57
1512619523.96,50122,4.06,73598.8,-8.61,-9.49,-9.53,0,*50
1512619525.23,50123,4.06,73596.8,-8.61,-9.49,-9.57,0,*55
1512619526.5,50124,4.06,73598.5,-8.61,-9.57,-9.49,0,*52
1512619527.74,50125,4.06,73602.5,-8.59,-9.49,-9.45,0,*5B
1512619529.02,50126,4.06,73602.3,-8.61,-9.49,-9.49,0,*5F
1512619530.26,50127,4.06,73594.8,-8.59,-9.45,-9.45,0,*55
1512619531.54,50128,4.06,73586.3,-8.61,-9.49,-9.49,0,*51
1512619532.81,50129,4.06,73584.5,-8.61,-9.57,-9.49,0,*5F
1512619534.08,50130,4.06,73590.3,-8.61,-9.49,-9.49,0,*58
1512619535.36,50131,4.06,73576.3,-8.61,-9.49,-9.49,0,*59
1512619536.63,50132,4.06,73576.0,-8.61,-9.49,-9.49,0,*5A
1512619537.87,50133,4.06,73576.5,-8.59,-9.49,-9.45,0,*5C
1512619539.15,50134,4.06,73572.3,-8.61,-9.49,-9.45,0,*50
1512619540.43,50135,4.06,73568.8,-8.61,-9.49,-9.45,0,*51
1512619541.7,50136,4.06,73564.3,-8.61,-9.49,-9.49,0,*5E
1512619542.95,50137,4.06,73552.8,-8.59,-9.45,-9.45,0,*54
1512619544.22,50138,4.06,73520.0,-8.61,-9.49,-9.49,0,*50
1512619545.49,50139,4.06,73540.0,-8.61,-9.49,-9.49,0,*51
1512619546.74,50140,4.06,73578.3,-8.59,-9.41,-9.45,0,*50
1512619547.99,50141,4.06,73582.5,-8.59,-9.41,-9.45,0,*51
1512619549.23,50142,4.06,73568.3,-8.59,-9.45,-9.41,0,*52
1512619550.48,50143,4.06,73558.0,-8.59,-9.41,-9.41,0,*57
1512619551.73,50144,4.06,73558.5,-8.59,-9.41,-9.41,0,*50
1512619553.0,50145,4.06,73570.5,-8.61,-9.45,-9.45,0,*5A
1512619554.28,50146,4.06,73564.3,-8.61,-9.45,-9.45,0,*59
1512619555.53,50147,4.06,73570.5,-8.59,-9.41,-9.41,0,*53
1512619556.81,50148,4.06,73598.3,-8.61,-9.45,-9.45,0,*57
1512619558.05,50149,4.06,73596.5,-8.59,-9.41,-9.41,0,*5D
1512619559.33,50150,4.06,73596.0,-8.61,-9.45,-9.45,0,*5E
1512619560.61,50151,4.06,73598.3,-8.61,-9.45,-9.45,0,*5F
1512619561.89,50152,4.06,73596.0,-8.61,-9.45,-9.45,0,*5C
1512619563.17,50153,4.06,73572.3,-8.61,-9.41,-9.45,0,*59
1512619564.45,50154,4.06,73586.0,-8.61,-9.45,-9.45,0,*5A
1512619565.73,50155,4.06,73590.5,-8.61,-9.45,-9.45,0,*5B
1512619567.01,50156,4.06,73592.8,-8.61,-9.41,-9.41,0,*58
1512619568.25,50157,4.06,73590.8,-8.59,-9.41,-9.41,0,*52
1512619569.5,50158,4.06,73592.3,-8.59,-9.45,-9.45,0,*5D
1512619570.78,50159,4.06,73596.5,-8.61,-9.41,-9.45,0,*53
1512619572.06,50160,4.06,73594.0,-8.61,-9.45,-9.45,0,*5D
1512619573.34,50161,4.06,73596.5,-8.61,-9.45,-9.45,0,*5C
1512619574.59,50162,4.06,73596.5,-8.59,-9.41,-9.37,0,*55
1512619575.83,50163,4.06,73598.5,-8.59,-9.37,-9.37,0,*55
1512619577.08,50164,4.06,73594.0,-8.59,-9.45,-9.37,0,*57
1512619578.36,50165,4.06,73596.8,-8.61,-9.41,-9.45,0,*5C
1512619579.64,50166,4.06,73600.0,-8.61,-9.41,-9.41,0,*5B
1512619580.92,50167,4.06,73596.5,-8.61,-9.45,-9.45,0,*5A
1512619582.2,50168,4.06,73596.0,-8.61,-9.41,-9.41,0,*55
1512619583.45,50169,4.06,73596.5,-8.59,-9.37,-9.41,0,*5E
1512619584.69,50170,4.06,73596.5,-8.59,-9.37,-9.41,0,*56
1512619585.94,50171,4.06,73598.8,-8.59,-9.41,-9.41,0,*56
1512619587.22,50172,4.06,73602.0,-8.61,-9.41,-9.41,0,*5E
1512619588.47,50173,4.06,73594.8,-8.59,-9.41,-9.37,0,*55
1512619589.75,50174,4.06,73588.8,-8.61,-9.41,-9.41,0,*58
1512619590.99,50175,4.06,73588.3,-8.59,-9.41,-9.37,0,*53
1512619592.24,50176,4.06,73586.5,-8.59,-9.37,-9.41,0,*50
1512619593.49,50177,4.06,73598.8,-8.59,-9.37,-9.37,0,*50
1512619594.74,50178,4.06,73594.0,-8.59,-9.37,-9.41,0,*5E
1512619595.98,50179,4.06,73588.0,-8.59,-9.41,-9.45,0,*5A
1512619597.26,50180,4.06,73590.3,-8.61,-9.41,-9.41,0,*53
1512619598.51,50181,4.06,73598.3,-8.59,-9.41,-9.41,0,*59
1512619599.73,50182,4.06,73596.8,-8.59,-9.41,-9.27,0,*5A
1512619600.98,50183,4.06,73594.0,-8.59,-9.37,-9.37,0,*5B
1512619602.23,50184,4.06,73600.0,-8.59,-9.41,-9.37,0,*5D
1512619603.48,50185,4.06,73588.3,-8.59,-9.37,-9.37,0,*5D
1512619604.73,50186,4.06,73596.5,-8.59,-9.41,-9.37,0,*5F
1512619605.97,50187,4.06,73602.0,-8.59,-9.41,-9.41,0,*5F
1512619607.22,50188,4.06,73588.8,-8.59,-9.41,-9.41,0,*50
1512619608.5,50189,4.06,73590.5,-8.61,-9.41,-9.45,0,*5E
1512619609.74,50190,4.06,73602.5,-8.59,-9.45,-9.41,0,*5D
1512619610.99,50191,4.06,73614.0,-8.59,-9.41,-9.41,0,*58
1512619612.27,50192,4.06,73612.5,-8.61,-9.45,-9.45,0,*50
1512619613.51,50193,4.06,73606.3,-8.59,-9.41,-9.41,0,*5A
1512619614.76,50194,4.06,73602.5,-8.59,-9.41,-9.41,0,*5D
1512619616.01,50195,4.06,73594.3,-8.59,-9.41,-9.41,0,*5C
1512619617.25,50196,4.06,73598.8,-8.59,-9.41,-9.41,0,*5F
1512619618.5,50197,4.06,73596.8,-8.59,-9.41,-9.37,0,*5F
1512619619.75,50198,4.06,73592.5,-8.59,-9.41,-9.41,0,*51
1512619621.02,50199,4.06,73594.0,-8.61,-9.45,-9.45,0,*5B
1512619622.27,50200,4.06,73598.8,-8.59,-9.41,-9.41,0,*53
1512619623.52,50201,4.06,73604.3,-8.59,-9.41,-9.41,0,*52
1512619624.76,50202,4.06,73612.5,-8.59,-9.41,-9.41,0,*51
1512619626.04,50203,4.06,73618.3,-8.61,-9.45,-9.45,0,*5B
1512619627.31,50204,4.06,73610.5,-8.61,-9.49,-9.41,0,*54
1512619628.59,50205,4.06,73596.0,-8.61,-9.49,-9.45,0,*51
1512619629.83,50206,4.06,73606.5,-8.59,-9.45,-9.41,0,*51
1512619631.11,50207,4.06,73602.5,-8.61,-9.49,-9.45,0,*53
1512619632.35,50208,4.06,73606.5,-8.59,-9.45,-9.41,0,*5F
1512619633.63,50209,4.06,73614.0,-8.61,-9.49,-9.49,0,*51
1512619634.87,50210,4.06,73610.3,-8.59,-9.45,-9.45,0,*52
1512619636.12,50211,4.06,73592.3,-8.59,-9.45,-9.41,0,*57
1512619637.36,50212,4.06,73574.0,-8.59,-9.45,-9.41,0,*54
1512619638.6,50213,4.06,73556.3,-8.59,-9.45,-9.41,0,*55
1512619639.88,50214,4.06,73566.8,-8.61,-9.49,-9.45,0,*51
1512619641.12,50215,4.06,73566.5,-8.59,-9.45,-9.45,0,*57
1512619642.37,50216,4.06,73566.8,-8.59,-9.45,-9.45,0,*54
1512619643.61,50217,4.06,73558.8,-8.59,-9.45,-9.45,0,*55
1512619644.89,50218,4.06,73564.3,-8.61,-9.49,-9.49,0,*51
1512619646.13,50219,4.06,73566.5,-8.59,-9.45,-9.45,0,*5B
1512619647.38,50220,4.06,73574.3,-8.59,-9.45,-9.45,0,*51
1512619648.62,50221,4.06,73584.5,-8.59,-9.45,-9.45,0,*50
1512619649.87,50222,4.06,73578.0,-8.59,-9.45,-9.45,0,*53
1512619651.11,50223,4.06,73570.5,-8.59,-9.45,-9.45,0,*52
1512619652.39,50224,4.06,73566.3,-8.61,-9.49,-9.49,0,*5E
1512619653.63,50225,4.06,73566.3,-8.59,-9.49,-9.49,0,*54
1512619654.9,50226,4.06,73572.0,-8.61,-9.49,-9.49,0,*5C
1512619656.15,50227,4.06,73574.5,-8.59,-9.45,-9.45,0,*56
1512619657.4,50228,4.06,73566.3,-8.59,-9.45,-9.45,0,*59
1512619658.64,50229,4.06,73572.5,-8.59,-9.49,-9.45,0,*54
1512619659.88,50230,4.06,73572.5,-8.59,-9.45,-9.45,0,*50
1512619661.13,50231,4.06,73572.8,-8.59,-9.45,-9.45,0,*51
1512619662.37,50232,4.06,73570.3,-8.59,-9.45,-9.45,0,*52
1512619663.61,50233,4.06,73582.0,-8.59,-9.49,-9.57,0,*5C
1512619664.88,50234,4.06,73586.0,-8.61,-9.49,-9.49,0,*5F
1512619666.16,50235,4.06,73592.0,-8.61,-9.49,-9.45,0,*52
1512619667.44,50236,4.06,73588.5,-8.61,-9.49,-9.45,0,*51
1512619668.68,50237,4.06,73598.8,-8.59,-9.45,-9.41,0,*53
1512619669.92,50238,4.06,73600.5,-8.59,-9.45,-9.41,0,*5C
1512619671.2,50239,4.06,73592.0,-8.61,-9.45,-9.45,0,*52
1512619672.45,50240,4.0,73590.5,-8.59,-9.41,-9.41,0,*57
1512619673.72,50241,4.06,73600.8,-8.61,-9.45,-9.49,0,*51
1512619675.0,50242,4.06,73592.3,-8.61,-9.45,-9.49,0,*52
1512619676.25,50243,4.06,73580.3,-8.59,-9.41,-9.45,0,*50
1512619677.53,50244,4.06,73588.3,-8.61,-9.45,-9.45,0,*58
1512619678.81,50245,4.06,73584.0,-8.61,-9.45,-9.45,0,*59
1512619680.09,50246,4.06,73594.8,-8.61,-9.45,-9.45,0,*5A
1512619681.33,50247,4.06,73592.3,-8.59,-9.45,-9.45,0,*50
1512619682.61,50248,4.06,73596.8,-8.61,-9.45,-9.41,0,*50
1512619683.88,50249,4.06,73590.0,-8.61,-9.49,-9.45,0,*59
1512619685.16,50250,4.06,73594.3,-8.61,-9.49,-9.45,0,*51
1512619686.44,50251,4.06,73584.3,-8.61,-9.45,-9.45,0,*5C
1512619687.68,50252,4.06,73588.5,-8.59,-9.45,-9.45,0,*54
1512619688.96,50253,4.06,73590.8,-8.61,-9.45,-9.45,0,*5E
1512619690.21,50254,4.06,73590.0,-8.59,-9.41,-9.41,0,*52
1512619691.49,50255,4.06,73580.5,-8.61,-9.41,-9.45,0,*5C
1512619692.73,50256,4.06,73590.8,-8.59,-9.41,-9.41,0,*50
1512619694.01,50257,4.06,73588.8,-8.61,-9.45,-9.45,0,*5A
1512619695.26,50258,4.06,73592.3,-8.59,-9.41,-9.41,0,*5E
1512619696.54,50259,4.06,73594.3,-8.61,-9.45,-9.45,0,*54
1512619697.78,50260,4.06,73596.0,-8.59,-9.41,-9.41,0,*55
1512619699.06,50261,4.06,73602.8,-8.61,-9.45,-9.45,0,*5F
1512619700.34,50262,4.06,73596.5,-8.61,-9.45,-9.45,0,*5C
1512619701.59,50263,4.06,73596.5,-8.59,-9.41,-9.37,0,*57
1512619702.87,50264,4.06,73594.0,-8.61,-9.45,-9.45,0,*5A
1512619704.15,50265,4.06,73594.8,-8.61,-9.45,-9.45,0,*5B
1512619705.43,50266,4.06,73594.3,-8.61,-9.45,-9.45,0,*58
1512619706.7,50267,4.06,73598.8,-8.61,-9.45,-9.45,0,*59
1512619707.99,50268,4.06,73594.3,-8.61,-9.41,-9.41,0,*56
1512619709.23,50269,4.06,73586.0,-8.59,-9.37,-9.41,0,*5D
1512619710.48,50270,4.06,73592.0,-8.59,-9.41,-9.41,0,*54
1512619711.72,50271,4.06,73598.8,-8.59,-9.41,-9.41,0,*55
1512619712.97,50272,4.06,73610.3,-8.59,-9.41,-9.41,0,*56
1512619714.21,50273,4.06,73612.3,-8.59,-9.41,-9.41,0,*57
1512619715.46,50274,4.06,73612.8,-8.59,-9.41,-9.41,0,*50
1512619716.74,50275,4.06,73604.5,-8.61,-9.45,-9.45,0,*5A
1512619717.98,50276,4.06,73610.0,-8.59,-9.41,-9.41,0,*52
1512619719.23,50277,4.06,73616.8,-8.59,-9.41,-9.41,0,*53
1512619720.48,50278,4.06,73620.5,-8.59,-9.41,-9.41,0,*5C
1512619721.76,50279,4.06,73618.8,-8.61,-9.41,-9.41,0,*56
1512619723.03,50280,4.06,73610.3,-8.61,-9.45,-9.45,0,*50